C/2020 S3 ( Erasmus )

Japanese version
Home page
Updated on October 18, 2020

---------------------------------------------------------------------

* Profile

Discovery Date September 17, 2020
Magnitude 18.4 mag
Discoverer Nicolas Erasmus (Asteroid Terrestrial-Impact Last Alert System (ATLAS) search program)

* Pictures

* Orbital Elements

Epoch 2020 Dec. 17.0 TT = JDT 2459200.5
T 2020 Dec. 13.22841 TT                                 Rudenko
q   0.4227514            (2000.0)            P               Q
z  -0.0367998      Peri.  347.49039     -0.85080735     +0.47125721
 +/-0.1814158      Node   223.23645     -0.44813566     -0.88174173
e   1.0155572      Incl.   19.83854     -0.27441080     -0.02116969
From 58 observations 2020 Sept. 17-22, mean residual 0".6.

* Finding Charts

* Magnitudes Graph

        m1 = 10.0 + 5 log d + 10.0 log r

---------------------------------------------------------------------

The orbital elements are published on M.P.E.C. 2020-S188.
The charts are made with StellaNavigator Ver.10 (AstroArts).
The magnitudes graphs are made with Comet for Windows.

---------------------------------------------------------------------

Copyright(C) Seiichi Yoshida (comet@aerith.net). All rights reserved.